TimeCET,TemperatureF,Dew PointF,Humidity,Sea Level PressureIn,VisibilityMPH,Wind Direction,Wind SpeedMPH,Gust SpeedMPH,PrecipitationIn,Events,Conditions,WindDirDegrees,DateUTC
12:55 AM,51.8,48.2,88,29.65,5.0,West,18.4,-,N/A,,Scattered Clouds,270,2013-02-21 23:55:00
1:00 AM,51,49,88,29.67,5,West,18.4,,,,Mist,270,2013-02-22 00:00:00
1:55 AM,50.0,46.4,87,29.65,5.0,West,18.4,-,N/A,,Scattered Clouds,280,2013-02-22 00:55:00
2:55 AM,50.0,46.4,87,29.68,5.0,West,15.0,-,N/A,,Scattered Clouds,280,2013-02-22 01:55:00
3:55 AM,50.0,44.6,82,29.65,5.0,West,15.0,-,N/A,,Scattered Clouds,270,2013-02-22 02:55:00
4:00 AM,50,44,75,29.68,5,West,15.0,,,,Mist,270,2013-02-22 03:00:00
4:55 AM,48.2,44.6,87,29.65,5.0,West,12.7,-,N/A,,Scattered Clouds,280,2013-02-22 03:55:00
5:55 AM,48.2,44.6,87,29.68,5.0,East,6.9,-,N/A,,Scattered Clouds,90,2013-02-22 04:55:00
6:55 AM,48.2,44.6,87,29.68,5.0,WSW,10.4,-,N/A,,Partly Cloudy,250,2013-02-22 05:55:00
7:00 AM,48,45,86,29.70,5,WSW,10.4,,,,Mist,250,2013-02-22 06:00:00
7:55 AM,50.0,44.6,82,29.71,6.2,West,10.4,-,N/A,,Partly Cloudy,260,2013-02-22 06:55:00
8:55 AM,53.6,42.8,67,29.74,6.2,West,13.8,-,N/A,,Partly Cloudy,260,2013-02-22 07:55:00
9:55 AM,57.2,41.0,55,29.74,6.2,West,11.5,-,N/A,,Partly Cloudy,280,2013-02-22 08:55:00
10:00 AM,58,41,42,29.75,6,West,11.5,,,,Scattered Clouds,280,2013-02-22 09:00:00
10:55 AM,60.8,41.0,48,29.74,6.2,West,13.8,-,N/A,,Scattered Clouds,260,2013-02-22 09:55:00
11:55 AM,62.6,44.6,52,29.74,6.2,WSW,13.8,-,N/A,,Scattered Clouds,250,2013-02-22 10:55:00
12:55 PM,60.8,44.6,55,29.71,6.2,West,16.1,-,N/A,,Scattered Clouds,260,2013-02-22 11:55:00
1:00 PM,60,45,47,29.74,6,West,16.1,,,,Mostly Cloudy,260,2013-02-22 12:00:00
2:55 PM,60.8,46.4,59,29.68,6.2,WSW,18.4,-,N/A,,Mostly Cloudy,250,2013-02-22 13:55:00
3:55 PM,59.0,50.0,72,29.68,5.6,WSW,16.1,-,N/A,,Mostly Cloudy,250,2013-02-22 14:55:00
4:00 PM,59,50,64,29.70,4,WSW,16.1,,,,Mist,250,2013-02-22 15:00:00
4:55 PM,59.0,46.4,63,29.68,5.6,West,13.8,-,N/A,,Scattered Clouds,260,2013-02-22 15:55:00
5:55 PM,55.4,48.2,77,29.68,5.6,West,8.1,-,N/A,,Scattered Clouds,260,2013-02-22 16:55:00
6:55 PM,53.6,50.0,88,29.71,6.2,West,10.4,-,N/A,,Mostly Cloudy,260,2013-02-22 17:55:00
7:00 PM,54,51,85,29.71,6,West,10.4,,,,Mostly Cloudy,260,2013-02-22 18:00:00
7:55 PM,53.6,51.8,94,29.74,5.0,West,11.5,-,N/A,Rain,Light Rain,280,2013-02-22 18:55:00
8:55 PM,50.0,50.0,100,29.74,3.7,West,6.9,-,N/A,Rain,Light Rain,260,2013-02-22 19:55:00
10:00 PM,50,50,100,29.74,4,WNW,15.0,,,,Mist,290,2013-02-22 21:00:00
10:55 PM,50.0,50.0,100,29.74,6.2,West,13.8,-,N/A,,Scattered Clouds,270,2013-02-22 21:55:00